| time (UTC) | temp C | wind direction | speed KPH | gust KPH | rain 1hr cm | rain 24hr cm | rain mn cm | humidity % | barometer mb |
| 20260506203804 | 14 | 124 | 6.4 | 16.1 | 0.00 | 0.00 | 0.00 | 71 | 1010.5 |
| 20260506203305 | 14 | 130 | 8.0 | 25.7 | 0.00 | 0.00 | 0.00 | 70 | 1010.6 |
| 20260506202306 | 14 | 102 | 9.7 | 16.1 | 0.00 | 0.00 | 0.00 | 70 | 1010.2 |
| 20260506201805 | 14 | 168 | 8.0 | 16.1 | 0.00 | 0.00 | 0.00 | 69 | 1010.2 |
| 20260506200805 | 14 | 117 | 8.0 | 16.1 | 0.00 | 0.00 | 0.00 | 65 | 1010.3 |
| 20260506200304 | 15 | 99 | 6.4 | 16.1 | 0.00 | 0.00 | 0.00 | 59 | 1009.9 |
| 20260506195804 | 16 | 125 | 4.8 | 12.9 | 0.00 | 0.00 | 0.00 | 40 | 1009.8 |
| 20260506195306 | 16 | 129 | 1.6 | 4.8 | 0.00 | 0.00 | 0.00 | 32 | 1009.5 |
| 20260506194804 | 16 | 124 | 1.6 | 3.2 | 0.00 | 0.00 | 0.00 | 31 | 1009.5 |
| 20260506194304 | 16 | 124 | 0.0 | 1.6 | 0.00 | 0.00 | 0.00 | 32 | 1009.6 |
| 20260506193804 | 16 | 95 | 0.0 | 1.6 | 0.00 | 0.00 | 0.00 | 33 | 1009.7 |
| 20260506193304 | 16 | 81 | 0.0 | 4.8 | 0.00 | 0.00 | 0.00 | 33 | 1009.2 |
| 20260506191805 | 17 | 106 | 0.0 | 1.6 | 0.00 | 0.00 | 0.00 | 32 | 1009.3 |
| 20260506191304 | 17 | 91 | 0.0 | 1.6 | 0.00 | 0.00 | 0.00 | 31 | 1009.5 |
| 20260506190805 | 17 | 73 | 0.0 | 1.6 | 0.00 | 0.00 | 0.00 | 30 | 1009.7 |
| 20260506190305 | 17 | 61 | 0.0 | 1.6 | 0.00 | 0.00 | 0.00 | 29 | 1009.7 |
| 20260506185805 | 18 | 23 | 0.0 | 1.6 | 0.00 | 0.00 | 0.00 | 28 | 1009.8 |
| 20260506185307 | 18 | 313 | 0.0 | 0.0 | 0.00 | 0.00 | 0.00 | 27 | 1009.7 |
| 20260506184805 | 19 | 302 | 0.0 | 0.0 | 0.00 | 0.00 | 0.00 | 27 | 1009.6 |
| 20260506184305 | 18 | 308 | 0.0 | 1.6 | 0.00 | 0.00 | 0.00 | 28 | 1009.7 |
| 20260506183804 | 18 | 311 | 1.6 | 1.6 | 0.00 | 0.00 | 0.00 | 29 | 1009.9 |
| 20260506182805 | 19 | 179 | 1.6 | 3.2 | 0.00 | 0.00 | 0.00 | 26 | 1009.9 |
| 20260506182306 | 19 | 54 | 1.6 | 3.2 | 0.00 | 0.00 | 0.00 | 25 | 1009.8 |
| 20260506181305 | 20 | 234 | 0.0 | 1.6 | 0.00 | 0.00 | 0.00 | 24 | 1009.6 |
| 20260506180804 | 20 | 238 | 1.6 | 1.6 | 0.00 | 0.00 | 0.00 | 24 | 1009.6 |
| 20260506180304 | 19 | 269 | 1.6 | 1.6 | 0.00 | 0.00 | 0.00 | 25 | 1009.7 |
| 20260506175805 | 20 | 48 | 1.6 | 3.2 | 0.00 | 0.00 | 0.00 | 24 | 1009.7 |
| 20260506175306 | 20 | 10 | 1.6 | 3.2 | 0.00 | 0.00 | 0.00 | 24 | 1009.7 |
| 20260506174805 | 20 | 260 | 1.6 | 3.2 | 0.00 | 0.00 | 0.00 | 24 | 1009.8 |
| 20260506174305 | 20 | 250 | 1.6 | 3.2 | 0.00 | 0.00 | 0.00 | 25 | 1010.0 |
| 20260506173804 | 19 | 134 | 1.6 | 3.2 | 0.00 | 0.00 | 0.00 | 25 | 1010.0 |
| 20260506173304 | 20 | 150 | 3.2 | 3.2 | 0.00 | 0.00 | 0.00 | 26 | 1010.2 |
| 20260506172804 | 20 | 119 | 3.2 | 4.8 | 0.00 | 0.00 | 0.00 | 25 | 1010.0 |
| 20260506172307 | 20 | 133 | 3.2 | 4.8 | 0.00 | 0.00 | 0.00 | 25 | 1009.8 |
| 20260506171305 | 20 | 238 | 3.2 | 8.0 | 0.00 | 0.00 | 0.00 | 26 | 1009.8 |
| 20260506170804 | 20 | 191 | 0.0 | 1.6 | 0.00 | 0.00 | 0.00 | 25 | 1009.9 |
| 20260506170304 | 20 | 237 | 1.6 | 3.2 | 0.00 | 0.00 | 0.00 | 25 | 1010.0 |
| 20260506165805 | 21 | 232 | 3.2 | 4.8 | 0.00 | 0.00 | 0.00 | 26 | 1010.0 |
| 20260506165306 | 20 | 197 | 1.6 | 4.8 | 0.00 | 0.00 | 0.00 | 25 | 1010.2 |
| 20260506164805 | 20 | 330 | 1.6 | 8.0 | 0.00 | 0.00 | 0.00 | 28 | 1010.1 |
| 20260506164304 | 20 | 42 | 3.2 | 4.8 | 0.00 | 0.00 | 0.00 | 29 | 1010.4 |
| 20260506163805 | 20 | 13 | 3.2 | 8.0 | 0.00 | 0.00 | 0.00 | 28 | 1010.2 |
| 20260506163304 | 20 | 4 | 3.2 | 4.8 | 0.00 | 0.00 | 0.00 | 28 | 1010.2 |
| 20260506162804 | 20 | 24 | 3.2 | 4.8 | 0.00 | 0.00 | 0.00 | 28 | 1009.9 |
| 20260506162307 | 20 | 310 | 1.6 | 8.0 | 0.00 | 0.00 | 0.00 | 29 | 1010.1 |
| 20260506161805 | 20 | 55 | 3.2 | 4.8 | 0.00 | 0.00 | 0.00 | 30 | 1010.0 |
| 20260506161304 | 20 | 286 | 0.0 | 4.8 | 0.00 | 0.00 | 0.00 | 29 | 1010.2 |
| 20260506160805 | 20 | 165 | 3.2 | 8.0 | 0.00 | 0.00 | 0.00 | 30 | 1010.1 |
| 20260506160305 | 20 | 166 | 3.2 | 8.0 | 0.00 | 0.00 | 0.00 | 30 | 1010.1 |
| 20260506155805 | 20 | 176 | 1.6 | 4.8 | 0.00 | 0.00 | 0.00 | 30 | 1010.2 |
| 20260506155306 | 19 | 243 | 1.6 | 4.8 | 0.00 | 0.00 | 0.00 | 34 | 1010.5 |
| 20260506154304 | 18 | 157 | 3.2 | 4.8 | 0.00 | 0.00 | 0.00 | 33 | 1010.7 |
| 20260506153804 | 18 | 143 | 3.2 | 8.0 | 0.00 | 0.00 | 0.00 | 33 | 1010.4 |
| 20260506152804 | 18 | 169 | 3.2 | 4.8 | 0.00 | 0.00 | 0.00 | 33 | 1010.2 |
| 20260506152306 | 18 | 151 | 3.2 | 11.3 | 0.00 | 0.00 | 0.00 | 34 | 1010.0 |
| 20260506151804 | 19 | 241 | 3.2 | 8.0 | 0.00 | 0.00 | 0.00 | 33 | 1010.2 |
| 20260506151304 | 18 | 238 | 3.2 | 9.7 | 0.00 | 0.00 | 0.00 | 33 | 1010.4 |
| 20260506150305 | 19 | 152 | 4.8 | 8.0 | 0.00 | 0.00 | 0.00 | 32 | 1010.1 |
| 20260506145804 | 20 | 189 | 3.2 | 9.7 | 0.00 | 0.00 | 0.00 | 30 | 1010.0 |
| 20260506145306 | 20 | 189 | 4.8 | 9.7 | 0.00 | 0.00 | 0.00 | 30 | 1010.3 |
| 20260506144804 | 20 | 161 | 4.8 | 9.7 | 0.00 | 0.00 | 0.00 | 29 | 1010.3 |
| 20260506144305 | 20 | 237 | 6.4 | 12.9 | 0.00 | 0.00 | 0.00 | 32 | 1010.4 |
| 20260506143805 | 20 | 205 | 4.8 | 12.9 | 0.00 | 0.00 | 0.00 | 33 | 1010.4 |
| 20260506143305 | 20 | 147 | 4.8 | 12.9 | 0.00 | 0.00 | 0.00 | 33 | 1010.6 |
| 20260506142805 | 20 | 153 | 4.8 | 9.7 | 0.00 | 0.00 | 0.00 | 30 | 1010.6 |
| 20260506141805 | 21 | 205 | 6.4 | 12.9 | 0.00 | 0.00 | 0.00 | 31 | 1010.6 |
| 20260506141305 | 20 | 239 | 3.2 | 16.1 | 0.00 | 0.00 | 0.00 | 30 | 1010.6 |
| 20260506140805 | 20 | 224 | 4.8 | 16.1 | 0.00 | 0.00 | 0.00 | 31 | 1010.7 |
| 20260506140305 | 20 | 229 | 6.4 | 12.9 | 0.00 | 0.00 | 0.00 | 31 | 1010.8 |
| 20260506135804 | 20 | 234 | 6.4 | 12.9 | 0.00 | 0.00 | 0.00 | 29 | 1010.9 |
| 20260506135306 | 20 | 207 | 6.4 | 16.1 | 0.00 | 0.00 | 0.00 | 33 | 1010.8 |
| 20260506134804 | 20 | 212 | 8.0 | 14.5 | 0.00 | 0.00 | 0.00 | 32 | 1010.7 |
| 20260506133305 | 20 | 201 | 6.4 | 14.5 | 0.00 | 0.00 | 0.00 | 32 | 1010.8 |
| 20260506132805 | 20 | 151 | 4.8 | 8.0 | 0.00 | 0.00 | 0.00 | 31 | 1011.0 |
| 20260506132307 | 20 | 136 | 4.8 | 11.3 | 0.00 | 0.00 | 0.00 | 31 | 1011.2 |
| 20260506131304 | 20 | 218 | 3.2 | 8.0 | 0.00 | 0.00 | 0.00 | 30 | 1011.2 |
| 20260506130804 | 20 | 226 | 6.4 | 11.3 | 0.00 | 0.00 | 0.00 | 33 | 1011.4 |
| 20260506130304 | 19 | 149 | 6.4 | 12.9 | 0.00 | 0.00 | 0.00 | 33 | 1011.2 |
| 20260506125804 | 19 | 158 | 4.8 | 11.3 | 0.00 | 0.00 | 0.00 | 34 | 1011.0 |
| 20260506125306 | 18 | 91 | 3.2 | 9.7 | 0.00 | 0.00 | 0.00 | 33 | 1011.1 |
| 20260506124304 | 19 | 159 | 4.8 | 14.5 | 0.00 | 0.00 | 0.00 | 33 | 1011.1 |
| 20260506123805 | 19 | 304 | 3.2 | 11.3 | 0.00 | 0.00 | 0.00 | 33 | 1011.1 |
| 20260506123304 | 19 | 255 | 4.8 | 11.3 | 0.00 | 0.00 | 0.00 | 33 | 1011.0 |
| 20260506122804 | 19 | 249 | 8.0 | 16.1 | 0.00 | 0.00 | 0.00 | 34 | 1011.0 |
| 20260506122306 | 18 | 224 | 4.8 | 11.3 | 0.00 | 0.00 | 0.00 | 34 | 1011.2 |
| 20260506121305 | 19 | 232 | 9.7 | 14.5 | 0.00 | 0.00 | 0.00 | 32 | 1011.2 |
| 20260506120805 | 20 | 228 | 6.4 | 12.9 | 0.00 | 0.00 | 0.00 | 34 | 1011.2 |
| 20260506120305 | 19 | 222 | 4.8 | 11.3 | 0.00 | 0.00 | 0.00 | 33 | 1011.2 |
| 20260506115804 | 20 | 239 | 1.6 | 9.7 | 0.00 | 0.00 | 0.00 | 33 | 1011.4 |
| 20260506115307 | 18 | 310 | 3.2 | 8.0 | 0.00 | 0.00 | 0.00 | 34 | 1011.6 |
| 20260506114804 | 18 | 273 | 4.8 | 16.1 | 0.00 | 0.00 | 0.00 | 35 | 1011.6 |
| 20260506114304 | 18 | 230 | 4.8 | 11.3 | 0.00 | 0.00 | 0.00 | 35 | 1011.6 |
| 20260506113804 | 18 | 214 | 4.8 | 11.3 | 0.00 | 0.00 | 0.00 | 35 | 1011.5 |
| 20260506112804 | 17 | 287 | 3.2 | 11.3 | 0.00 | 0.00 | 0.00 | 36 | 1011.7 |
| 20260506112306 | 19 | 243 | 8.0 | 12.9 | 0.00 | 0.00 | 0.00 | 33 | 1011.6 |
| 20260506111804 | 18 | 276 | 3.2 | 9.7 | 0.00 | 0.00 | 0.00 | 34 | 1011.6 |
| 20260506111304 | 18 | 238 | 6.4 | 12.9 | 0.00 | 0.00 | 0.00 | 35 | 1011.8 |
| 20260506110805 | 17 | 26 | 1.6 | 8.0 | 0.00 | 0.00 | 0.00 | 35 | 1012.2 |
| 20260506110305 | 17 | 54 | 3.2 | 11.3 | 0.00 | 0.00 | 0.00 | 33 | 1011.9 |
| 20260506105305 | 18 | 122 | 1.6 | 8.0 | 0.00 | 0.00 | 0.00 | 31 | 1012.0 |
| 20260506104805 | 18 | 150 | 4.8 | 9.7 | 0.00 | 0.00 | 0.00 | 32 | 1012.1 |
| 20260506104305 | 17 | 226 | 3.2 | 9.7 | 0.00 | 0.00 | 0.00 | 33 | 1012.0 |
| 20260506103804 | 17 | 223 | 4.8 | 8.0 | 0.00 | 0.00 | 0.00 | 32 | 1012.2 |
| 20260506103304 | 17 | 189 | 3.2 | 8.0 | 0.00 | 0.00 | 0.00 | 34 | 1012.0 |
| 20260506102804 | 17 | 230 | 4.8 | 8.0 | 0.00 | 0.00 | 0.00 | 33 | 1012.0 |
| 20260506101804 | 18 | 149 | 3.2 | 8.0 | 0.00 | 0.00 | 0.00 | 32 | 1012.0 |
| 20260506101304 | 18 | 133 | 0.0 | 3.2 | 0.00 | 0.00 | 0.00 | 34 | 1012.1 |
| 20260506100805 | 17 | 77 | 0.0 | 3.2 | 0.00 | 0.00 | 0.00 | 36 | 1012.4 |
| 20260506100304 | 16 | 111 | 1.6 | 4.8 | 0.00 | 0.00 | 0.00 | 37 | 1012.4 |
| 20260506095805 | 16 | 139 | 1.6 | 8.0 | 0.00 | 0.00 | 0.00 | 38 | 1012.6 |
| 20260506095305 | 16 | 156 | 3.2 | 4.8 | 0.00 | 0.00 | 0.00 | 40 | 1012.8 |
| 20260506094804 | 15 | 277 | 1.6 | 3.2 | 0.00 | 0.00 | 0.00 | 40 | 1012.5 |
| 20260506094305 | 16 | 53 | 3.2 | 8.0 | 0.00 | 0.00 | 0.00 | 36 | 1012.7 |
| 20260506093804 | 17 | 81 | 1.6 | 8.0 | 0.00 | 0.00 | 0.00 | 37 | 1012.4 |
| 20260506093305 | 17 | 65 | 1.6 | 4.8 | 0.00 | 0.00 | 0.00 | 38 | 1012.3 |
| 20260506092805 | 17 | 23 | 1.6 | 8.0 | 0.00 | 0.00 | 0.00 | 40 | 1012.2 |
| 20260506091804 | 16 | 40 | 1.6 | 3.2 | 0.00 | 0.00 | 0.00 | 44 | 1012.1 |
| 20260506091304 | 16 | 186 | 3.2 | 4.8 | 0.00 | 0.00 | 0.00 | 46 | 1012.2 |
| 20260506090305 | 16 | 261 | 1.6 | 3.2 | 0.00 | 0.00 | 0.00 | 46 | 1012.2 |
| 20260506085804 | 16 | 7 | 0.0 | 3.2 | 0.00 | 0.00 | 0.00 | 47 | 1012.1 |
| 20260506085306 | 15 | 75 | 3.2 | 8.0 | 0.00 | 0.00 | 0.00 | 49 | 1012.3 |
| 20260506084805 | 15 | 246 | 3.2 | 4.8 | 0.00 | 0.00 | 0.00 | 52 | 1012.4 |
| 20260506084304 | 15 | 135 | 4.8 | 8.0 | 0.00 | 0.00 | 0.00 | 55 | 1012.4 |
| 20260506083305 | 14 | 65 | 3.2 | 8.0 | 0.00 | 0.00 | 0.00 | 58 | 1012.6 |
| 20260506082805 | 14 | 156 | 3.2 | 8.0 | 0.00 | 0.00 | 0.00 | 58 | 1012.6 |
| 20260506082305 | 14 | 73 | 3.2 | 9.7 | 0.00 | 0.00 | 0.00 | 59 | 1012.6 |
| 20260506081804 | 13 | 99 | 3.2 | 8.0 | 0.00 | 0.00 | 0.00 | 59 | 1012.6 |
| 20260506081304 | 13 | 86 | 3.2 | 11.3 | 0.00 | 0.00 | 0.00 | 60 | 1012.7 |
| 20260506080304 | 13 | 66 | 4.8 | 8.0 | 0.00 | 0.00 | 0.00 | 60 | 1012.7 |
| 20260506073304 | 12 | 104 | 1.6 | 4.8 | 0.00 | 0.00 | 0.00 | 66 | 1012.9 |
| 20260506072804 | 12 | 85 | 3.2 | 4.8 | 0.00 | 0.00 | 0.00 | 71 | 1012.6 |
| 20260506072306 | 11 | 50 | 1.6 | 4.8 | 0.00 | 0.00 | 0.00 | 77 | 1013.0 |
| 20260506071805 | 11 | 14 | 1.6 | 3.2 | 0.00 | 0.00 | 0.00 | 84 | 1013.1 |
| 20260506071304 | 10 | 108 | 0.0 | 1.6 | 0.00 | 0.00 | 0.00 | 92 | 1013.3 |
| 20260506070804 | 9 | 6 | 0.0 | 4.8 | 0.00 | 0.00 | 0.00 | 94 | 1013.4 |
| 20260506061805 | 5 | 319 | 0.0 | 1.6 | 0.00 | 0.00 | 0.00 | 94 | 1013.5 |
| 20260506060804 | 5 | 337 | 1.6 | 3.2 | 0.00 | 0.00 | 0.00 | 94 | 1013.1 |
| 20260506060304 | 5 | 331 | 1.6 | 1.6 | 0.00 | 0.00 | 0.00 | 94 | 1013.3 |
| 20260506051305 | 5 | 61 | 1.6 | 4.8 | 0.00 | 0.00 | 0.00 | 89 | 1012.5 |
| 20260506050805 | 5 | 28 | 3.2 | 9.7 | 0.00 | 0.00 | 0.00 | 86 | 1012.6 |
| 20260506044804 | 3 | 317 | 0.0 | 0.0 | 0.00 | 0.00 | 0.00 | 84 | 1012.6 |
| 20260506044305 | 3 | 268 | 0.0 | 0.0 | 0.00 | 0.00 | 0.00 | 83 | 1012.5 |
| 20260506043804 | 4 | 163 | 0.0 | 0.0 | 0.00 | 0.00 | 0.00 | 83 | 1012.4 |
| 20260506042804 | 5 | 237 | 3.2 | 4.8 | 0.00 | 0.00 | 0.00 | 77 | 1012.3 |
| 20260506042305 | 5 | 42 | 1.6 | 3.2 | 0.00 | 0.00 | 0.00 | 79 | 1012.4 |
| 20260506041804 | 5 | 9 | 1.6 | 3.2 | 0.00 | 0.00 | 0.00 | 79 | 1012.6 |
| 20260506040304 | 5 | 341 | 3.2 | 4.8 | 0.00 | 0.00 | 0.00 | 80 | 1012.2 |
| 20260506035804 | 5 | 28 | 1.6 | 3.2 | 0.00 | 0.00 | 0.00 | 83 | 1012.6 |
| 20260506035306 | 4 | 31 | 0.0 | 3.2 | 0.00 | 0.00 | 0.00 | 84 | 1012.4 |
| 20260506034805 | 4 | 320 | 3.2 | 4.8 | 0.00 | 0.00 | 0.00 | 83 | 1012.6 |
| 20260506034305 | 4 | 357 | 1.6 | 4.8 | 0.00 | 0.00 | 0.00 | 83 | 1012.7 |
| 20260506033304 | 5 | 327 | 3.2 | 4.8 | 0.00 | 0.00 | 0.00 | 80 | 1012.3 |
| 20260506032804 | 6 | 322 | 3.2 | 4.8 | 0.00 | 0.00 | 0.00 | 76 | 1012.3 |
| 20260506032306 | 7 | 19 | 1.6 | 3.2 | 0.00 | 0.00 | 0.00 | 74 | 1012.6 |
| 20260506031304 | 6 | 64 | 1.6 | 3.2 | 0.00 | 0.00 | 0.00 | 78 | 1012.6 |
| 20260506030305 | 7 | 163 | 0.0 | 1.6 | 0.00 | 0.00 | 0.00 | 77 | 1012.2 |
| 20260506025804 | 7 | 99 | 0.0 | 4.8 | 0.00 | 0.00 | 0.00 | 77 | 1012.1 |
| 20260506025306 | 6 | 125 | 0.0 | 12.9 | 0.00 | 0.00 | 0.00 | 77 | 1012.3 |
| 20260506024305 | 6 | 127 | 6.4 | 9.7 | 0.00 | 0.00 | 0.00 | 77 | 1012.3 |
| 20260506023804 | 6 | 151 | 1.6 | 3.2 | 0.00 | 0.00 | 0.00 | 76 | 1012.3 |
| 20260506023304 | 6 | 139 | 0.0 | 0.0 | 0.00 | 0.00 | 0.00 | 76 | 1012.8 |
| 20260506022805 | 6 | 86 | 0.0 | 0.0 | 0.00 | 0.00 | 0.00 | 77 | 1012.7 |
| 20260506022306 | 6 | 147 | 0.0 | 0.0 | 0.00 | 0.00 | 0.00 | 76 | 1012.6 |
| 20260506021805 | 5 | 2 | 0.0 | 0.0 | 0.00 | 0.00 | 0.00 | 75 | 1012.7 |
| 20260506021304 | 6 | 2 | 0.0 | 0.0 | 0.00 | 0.00 | 0.00 | 75 | 1012.4 |
| 20260506020804 | 6 | 3 | 0.0 | 0.0 | 0.00 | 0.00 | 0.00 | 74 | 1012.4 |
| 20260506020305 | 6 | 331 | 0.0 | 0.0 | 0.00 | 0.00 | 0.00 | 73 | 1012.3 |
| 20260506015306 | 6 | 5 | 0.0 | 3.2 | 0.00 | 0.00 | 0.00 | 72 | 1012.4 |
| 20260506014305 | 7 | 329 | 0.0 | 1.6 | 0.00 | 0.00 | 0.00 | 70 | 1012.1 |
| 20260506013804 | 7 | 326 | 0.0 | 3.2 | 0.00 | 0.00 | 0.00 | 70 | 1011.9 |
| 20260506013304 | 7 | 326 | 1.6 | 3.2 | 0.00 | 0.00 | 0.00 | 70 | 1012.0 |
| 20260506012308 | 7 | 269 | 0.0 | 0.0 | 0.00 | 0.00 | 0.00 | 74 | 1012.2 |
| 20260506011804 | 7 | 269 | 0.0 | 0.0 | 0.00 | 0.00 | 0.00 | 74 | 1012.4 |
| 20260506011304 | 7 | 313 | 0.0 | 0.0 | 0.00 | 0.00 | 0.00 | 73 | 1012.4 |
| 20260506010805 | 7 | 313 | 0.0 | 0.0 | 0.00 | 0.00 | 0.00 | 72 | 1012.3 |
| 20260506005804 | 8 | 313 | 0.0 | 0.0 | 0.00 | 0.00 | 0.00 | 69 | 1012.1 |
| 20260506004805 | 8 | 349 | 0.0 | 0.0 | 0.00 | 0.00 | 0.00 | 67 | 1012.4 |
| 20260506004305 | 8 | 23 | 0.0 | 0.0 | 0.00 | 0.00 | 0.00 | 66 | 1012.6 |
| 20260506003804 | 9 | 48 | 0.0 | 0.0 | 0.00 | 0.00 | 0.00 | 65 | 1012.3 |
| 20260506003305 | 10 | 351 | 0.0 | 0.0 | 0.00 | 0.00 | 0.00 | 62 | 1012.3 |
| 20260506002805 | 10 | 348 | 0.0 | 0.0 | 0.00 | 0.00 | 0.00 | 58 | 1012.3 |
| 20260506002306 | 10 | 9 | 0.0 | 0.0 | 0.00 | 0.00 | 0.00 | 56 | 1012.2 |
| 20260506001805 | 10 | 356 | 0.0 | 0.0 | 0.00 | 0.00 | 0.00 | 56 | 1012.2 |
| 20260506001304 | 10 | 68 | 0.0 | 1.6 | 0.00 | 0.00 | 0.00 | 58 | 1012.5 |
| 20260506000805 | 10 | 81 | 0.0 | 1.6 | 0.00 | 0.00 | 0.00 | 60 | 1012.5 |
| 20260506000305 | 10 | 72 | 0.0 | 1.6 | 0.00 | 0.00 | 0.00 | 62 | 1012.6 |
| 20260505235305 | 10 | 36 | 1.6 | 3.2 | 0.00 | 0.00 | 0.00 | 64 | 1012.6 |
| 20260505234805 | 10 | 204 | 0.0 | 0.0 | 0.00 | 0.00 | 0.00 | 59 | 1012.9 |
| 20260505234304 | 10 | 203 | 0.0 | 0.0 | 0.00 | 0.00 | 0.00 | 59 | 1012.7 |
| 20260505232805 | 11 | 60 | 0.0 | 0.0 | 0.00 | 0.00 | 0.00 | 54 | 1012.7 |
| 20260505232305 | 11 | 45 | 0.0 | 0.0 | 0.00 | 0.00 | 0.00 | 53 | 1012.8 |
| 20260505231804 | 11 | 358 | 0.0 | 1.6 | 0.00 | 0.00 | 0.00 | 53 | 1012.8 |
| 20260505231304 | 11 | 40 | 0.0 | 1.6 | 0.00 | 0.00 | 0.00 | 54 | 1012.8 |
| 20260505230804 | 11 | 40 | 0.0 | 1.6 | 0.00 | 0.00 | 0.00 | 54 | 1012.7 |
| 20260505230305 | 11 | 51 | 0.0 | 1.6 | 0.00 | 0.00 | 0.00 | 55 | 1012.4 |
| 20260505225804 | 11 | 40 | 1.6 | 1.6 | 0.00 | 0.00 | 0.00 | 54 | 1012.4 |
| 20260505225306 | 11 | 43 | 0.0 | 1.6 | 0.00 | 0.00 | 0.00 | 55 | 1012.6 |
| 20260505224805 | 11 | 60 | 0.0 | 1.6 | 0.00 | 0.00 | 0.00 | 55 | 1012.7 |
| 20260505224304 | 11 | 66 | 1.6 | 3.2 | 0.00 | 0.00 | 0.00 | 55 | 1012.7 |
| 20260505223804 | 11 | 49 | 0.0 | 3.2 | 0.00 | 0.00 | 0.00 | 55 | 1012.7 |
| 20260505223305 | 10 | 42 | 0.0 | 0.0 | 0.00 | 0.00 | 0.00 | 55 | 1012.5 |
| 20260505222306 | 10 | 90 | 0.0 | 0.0 | 0.00 | 0.00 | 0.00 | 57 | 1013.0 |
| 20260505221804 | 10 | 91 | 0.0 | 0.0 | 0.00 | 0.00 | 0.00 | 57 | 1012.9 |
| 20260505221304 | 10 | 357 | 0.0 | 0.0 | 0.00 | 0.00 | 0.00 | 57 | 1012.8 |
| 20260505220804 | 10 | 322 | 0.0 | 1.6 | 0.00 | 0.00 | 0.00 | 56 | 1012.7 |
| 20260505220305 | 10 | 322 | 0.0 | 1.6 | 0.00 | 0.00 | 0.00 | 56 | 1012.7 |
| 20260505215805 | 10 | 275 | 0.0 | 0.0 | 0.00 | 0.00 | 0.00 | 57 | 1012.8 |
| 20260505215305 | 10 | 272 | 0.0 | 1.6 | 0.00 | 0.00 | 0.00 | 56 | 1012.8 |
| 20260505214805 | 10 | 294 | 1.6 | 4.8 | 0.00 | 0.00 | 0.00 | 55 | 1012.7 |
| 20260505214304 | 10 | 344 | 0.0 | 1.6 | 0.00 | 0.00 | 0.00 | 55 | 1012.7 |
| 20260505212804 | 11 | 331 | 1.6 | 3.2 | 0.00 | 0.00 | 0.00 | 53 | 1012.6 |
| 20260505212305 | 11 | 333 | 1.6 | 3.2 | 0.00 | 0.00 | 0.00 | 53 | 1012.5 |
| 20260505211805 | 11 | 355 | 3.2 | 4.8 | 0.00 | 0.00 | 0.00 | 52 | 1012.3 |
| 20260505211305 | 11 | 338 | 3.2 | 4.8 | 0.00 | 0.00 | 0.00 | 52 | 1012.7 |
| 20260505210804 | 11 | 319 | 1.6 | 3.2 | 0.00 | 0.00 | 0.00 | 52 | 1012.4 |
| 20260505210305 | 11 | 317 | 3.2 | 4.8 | 0.00 | 0.00 | 0.00 | 51 | 1012.5 |
| 20260505205804 | 11 | 318 | 3.2 | 4.8 | 0.00 | 0.00 | 0.00 | 51 | 1012.5 |
| 20260505205305 | 11 | 328 | 1.6 | 3.2 | 0.00 | 0.00 | 0.00 | 50 | 1012.5 |
| 20260505204804 | 12 | 334 | 1.6 | 3.2 | 0.00 | 0.00 | 0.00 | 49 | 1012.6 |
| 20260505204304 | 12 | 2 | 1.6 | 3.2 | 0.00 | 0.00 | 0.00 | 48 | 1012.6 |